www.pogodaiklimat.ru

Погода и климат >> Архив погоды >> Россия >> Свердловская область >> Туринск


АРХИВ ПОГОДЫ в Туринске

Время (UTC), дата Ветер
(напр.,м/с)
 
Видим.   Явления Облачность Т
(С)
Тd
(С)
f
(%)
Тe
(С)
Тes
(С)
Комфортность P
(гПа)
Po
(гПа)
Тmin
(С)
Tmax
(С)
R
(мм)
R24
(мм)
S
(см)
03 16.08 штиль 0 50 км 10/0
[Ac trans Ci fib]
+16.2 +14.6 90 +16 +18 1015.8 1003.6 +11.6
06 16.08 штиль 0 50 км 10/3 600 м
[Sc Ac As]
+19.8 +16.7 82 +22 +25 комфорт 1015.6 1003.6
09 16.08 ЮЗ 1 50 км 3/0
[Ac As]
+24.2 +16.5 62 +28 +37 душно 1014.7 1002.9
12 16.08 З 1 50 км 3/0
[Ci fib]
+24.1 +15.2 58 +27 +31 жарко 1014.3 1002.5
15 16.08 штиль 0 50 км 8/0
[Ac trans Ci fib]
+18.9 +16.4 85 +20 +20 1014.9 1002.9 +25.3
18 16.08 штиль 0 1000 м дымка ясно +16.2 +15.4 95 +16 +16 1015.1 1002.9
21 16.08 штиль 0 1000 м дымка 6/0
[Ci fib]
+15.3 +14.8 97 +15 +15 1015.5 1003.3
00 17.08 З 1 4000 м дымка 10/10 1000 м
[Sc]
+15.9 +15.5 97 +17 +17 1015.2 1003.0
03 17.08 штиль 0 50 км 10/0
[Ci fib]
+19.8 +17.6 87 +22 +25 комфорт 1015.4 1003.4 +14.5
06 17.08 штиль 0 50 км 10/0
[Ac trans Ci fib]
+21.9 +17.2 75 +26 +33 душно 1015.7 1003.8
09 17.08 С 1 50 км 6/4 1000 м
[Cu hum Ci fib]
+24.6 +16.2 60 +28 +35 душно 1016.7 1004.8
12 17.08 С 1 50 км 8/0
[Ci fib]
+23.5 +14.7 58 +26 +30 жарко 1017.2 1005.3
15 17.08 штиль 0 50 км 8/0
[Ci fib]
+18.3 +15.2 82 +19 +19 1018.0 1005.9 +24.7
18 17.08 штиль 0 1000 м дымка 4/0
[Ci fib]
+15.0 +14.2 95 +15 +15 1018.4 1006.1
21 17.08 штиль 0 1000 м дымка 10/10 600 м
[Sc]
+14.5 +14.0 97 +14 +14 1018.7 1006.4
00 18.08 штиль 0 4000 м дымка 10/4 1000 м
[Sc Ac trans]
+14.6 +14.2 97 +14 +14 1019.4 1007.1
03 18.08 СВ 1 50 км 10/10 600 м
[Cb calv]
+16.5 +15.4 93 +17 +17 1019.8 1007.6 +14.4
06 18.08 СВ 2 4000 м слаб. ливневой дождь 10/10 300 м
[Cb calv]
+15.5 +14.4 93 +15 +15 1020.7 1008.5
09 18.08 СВ 1 50 км {ливн. осадки} 10/10 600 м
[Cb calv]
+17.8 +13.9 78 +19 +19 1021.3 1009.1
12 18.08 СВ 2 50 км {ливн. осадки} 10/10 600 м
[Cb calv]
+17.2 +13.9 81 +18 +18 1022.2 1010.0
15 18.08 штиль 0 50 км {ливн. осадки} 10/10 1000 м
[Sc]
+15.5 +14.1 91 +15 +15 1023.2 1010.9 +18.1 3
18 18.08 штиль 0 1000 м {ливн. осадки} 10/10 600 м
[Sc]
+14.1 +13.4 96 +14 +14 1024.5 1012.1
21 18.08 штиль 0 1000 м 10/4 600 м
[Sc Ac trans]
+13.5 +13.0 97 +13 +13 1025.1 1012.7
00 19.08 штиль 0 50 км 4/0
[Ac trans]
+12.8 +12.4 97 +12 +12 1026.0 1013.6
03 19.08 СВ 1 50 км 8/0
[Ac As]
+13.8 +13.3 97 +14 +15 1027.0 1014.6 +12.4
06 19.08 штиль 0 50 км 8/0
[Ac trans Ci fib]
+20.0 +13.6 67 +22 +30 комфорт 1027.4 1015.2
09 19.08 штиль 0 50 км 10/4 600 м
[Cb calv Ac trans Ci fib]
+22.4 +12.9 55 +25 +29 комфорт 1026.8 1014.7
12 19.08 В 1 50 км 10/0
[Ac trans Ci fib]
+20.8 +13.4 63 +24 +26 комфорт 1026.5 1014.4
15 19.08 штиль 0 50 км 10/0
[Ac trans Ci fib]
+16.1 +14.2 88 +16 +16 1026.7 1014.4 +23.4
18 19.08 штиль 0 1000 м 6/0
[Ci fib]
+12.8 +12.2 96 +12 +12 1026.7 1014.3
21 19.08 штиль 0 1000 м 10/0
[Ci fib]
+11.4 +11.0 97 +11 +11 1026.2 1013.7
00 20.08 штиль 0 4000 м дымка 10/0
[Ac trans Ci fib]
+10.5 +10.1 97 +10 +10 1025.5 1013.0
03 20.08 штиль 0 4000 м дымка 10/4 1000 м
[Sc Ac trans]
+13.3 +13.0 98 +13 +14 1024.9 1012.5 +10.0
06 20.08 штиль 0 50 км 10/4 600 м
[Sc As op]
+16.5 +13.9 85 +16 +18 1023.6 1011.3
09 20.08 штиль 0 4000 м слаб. ливневой дождь 10/10 600 м
[Cb calv]
+14.8 +13.7 93 +14 +14 1022.5 1010.2
12 20.08 штиль 0 4000 м слаб. ливневой дождь 10/10 600 м
[Cb calv]
+15.0 +14.5 97 +15 +15 1021.2 1009.0
15 20.08 штиль 0 4000 м слаб. ливневой дождь 10/10 600 м
[Cb calv]
+14.6 +14.2 97 +14 +14 1020.3 1008.0 +17.2 8
18 20.08 СВ 1 1000 м дымка {ливн. осадки} 10/6 1000 м
[Sc Ac As]
+13.6 +13.2 97 +14 +14 1020.1 1007.8
21 20.08 СВ 1 1000 м дымка ясно +11.5 +11.2 98 +11 +11 1019.5 1007.1
00 21.08 СВ 1 1000 м дымка ясно +9.4 +9.2 99 +9 +9 1020.1 1007.6
03 21.08 СВ 2 4000 м дымка 3/0
[Ci fib]
+11.1 +10.9 99 +10 +12 1021.2 1008.8 +9.1 0.3
06 21.08 СВ 2 50 км 10/10 300 м
[Cb calv]
+14.0 +12.6 91 +13 +13 1021.6 1009.3
09 21.08 СВ 2 50 км 10/10 600 м
[Sc]
+17.5 +11.8 69 +18 +18 1021.6 1009.4
12 21.08 СЗ 1 50 км 8/4 600 м
[Sc Ac trans]
+19.3 +12.9 66 +22 +23 комфорт 1020.8 1008.7
15 21.08 штиль 0 50 км 4/0
[Ac trans]
+14.4 +13.3 93 +14 +14 1020.6 1008.3 +19.3
18 21.08 штиль 0 1000 м дымка 8/0
[Ac trans Ci fib]
+14.1 +13.1 94 +14 +14 1021.0 1008.7
21 21.08 штиль 0 1000 м дымка ясно +11.7 +11.1 96 +11 +11 1020.1 1007.7
00 22.08 СЗ 1 1000 м дымка 10/0
[Ci fib]
+10.5 +10.0 97 +10 +10 1020.6 1008.1
03 22.08 СЗ 1 50 км 3/0
[Ci fib]
+12.7 +11.8 94 +13 +15 1020.8 1008.4 +10.5
06 22.08 СЗ 1 50 км 3/0
[Ci fib]
+19.3 +13.3 68 +22 +31 комфорт 1020.2 1008.1
09 22.08 З 1 50 км 4/4 600 м
[Cu hum]
+22.4 +12.9 55 +25 +32 комфорт 1019.9 1007.9
12 22.08 штиль 0 50 км 10/0
[Ci fib]
+21.3 +14.2 64 +24 +28 комфорт 1019.1 1007.1
15 22.08 штиль 0 50 км 10/0
[Ci fib]
+16.6 +14.1 85 +16 +16 1019.0 1006.8 +23.2
18 22.08 ЮЗ 1 1000 м дымка ясно +14.0 +13.0 94 +14 +14 1018.8 1006.5
21 22.08 З 1 1000 м дымка 10/10 600 м
[Sc]
+15.0 +12.7 86 +15 +15 1018.2 1006.0
00 23.08 ЮЗ 1 1000 м дымка 10/10 600 м
[Sc]
+14.5 +13.1 91 +15 +15 1017.1 1004.9

 

Местоположение метеостанции Туринск (Свердловская область, Россия): широта 58.05 долгота 63.68 высота над уровнем моря 103 м.

В архиве по умолчанию представлена погода в Туринске за последнюю неделю. Архивные данные за месяц целиком и за предыдущие месяцы, начиная с января 2011 года, Вы можете получить, выбрав интересующий диапазон дат из раскрывающегося списка и нажав кнопку "Ввод!".


*Определитесь, кто Вы:
робот инопланетянин человек

Внимание! Время в таблицах - всемирное. Для получения местного времени необходимо прибавить поправку, которая равна 5 ч.

Смотрите также архив погоды в соседних городах и на ближайших метеорологических станциях:

Погода в Ирбите (Свердловская область, Россия) (64 км)
Погода в Таборах (Свердловская область, Россия) (72 км)
Погода в Тавде (Свердловская область, Россия) (94 км)
Погода в Алапаевске (Свердловская область, Россия) (119 км)
Погода в Тугулыме (Свердловская область, Россия) (124 км)
Погода в Артемовском (Свердловская область, Россия) (129 км)
Погода в Камышлове (Свердловская область, Россия) (145 км)
Погода в Тюмени (Тюменская область, Россия) (147 км)
Погода в Бутке (Свердловская область, Россия) (148 км)
Погода в Нижней Тавде (Тюменская область, Россия) (153 км)

Пояснения к столбцам:

Ветер - указаны скорость ветра в м/с - средняя за 10 мин, порывы в срок и между сроками (в фигурных скобках) и направление, откуда дует ветер: С - северный, СВ - северо-восточный, В - восточный, ЮВ - юго-восточный, Ю - южный, ЮЗ - юго-западный, З - западный, СЗ - северо-западный.
Видимость - горизонтальная дальность видимости в метрах или километрах. При видимости от 1 до 10 км при отсутствии осадков обычно наблюдается дымка, при ухудшении видимости до 1 км и менее - туман. В сухую погоду видимость может ухудшаться дымом, пылью или мглою.
Явления - указаны атмосферные явления, наблюдавшиеся в срок или в последний час перед сроком; фигурными скобками обозначены явления, наблюдавшиеся между сроками (за 1-3 часа до срока); квадратными скобками обозначены град или гололедные отложения с указанием их диаметра в мм.
Облачность - указаны через наклонную черту общая и нижняя облачность в баллах и высота нижней границы облаков в метрах; квадратными скобками обозначены формы облаков: Ci - перистые, Cs - перисто-слоистые, Cc - перисто-кучевые, Ac - высококучевые, As - высокослоистые, Sc - слоисто-кучевые, Ns - слоисто-дождевые, Cu - кучевые, Cb - кучево-дождевые. Подробнее классификацию облаков см. в Атласе облаков (PDF).
T - Температура воздуха - температура, измеренная на высоте 2 м над землей.
Td - Температура точки росы - температура, при понижении до которой содержащийся в воздухе водяной пар достигнет насыщения.
f - Относительная влажность воздуха - влажноcть воздуха, измеренная на высоте 2 м над землей.
Te - Эффективная температура - температура, которую ощущает одетый по сезону человек в тени. Характеристика душности погоды. При расчете учитывается влияние влажности воздуха и скорости ветра на теплоощущения человека.
Tes - Эффективная температура на солнце - температура, которую ощущает человек, с поправкой на солнечный нагрев. Характеристика знойности погоды. Зависит от высоты солнца над горизонтом, облачности и скорости ветра. Ночью, в пасмурную погоду, а также при ветре 12 м/с и более поправка равна нулю.
P - Атмосферное давление - приведенное к уровню моря атмосферное давление.
Po - Атмосферное давление - измеренное на уровне метеостанции атмосферное давление.
Tmin - Минимальная температура - минимум температуры воздуха на высоте 2 м над землей.
Tmax - Максимальная температура - максимум температуры воздуха на высоте 2 м над землей.
R - Количество осадков - Количество выпавших осадков за период времени, мм. При наведении курсора мыши на число - период времени, за который выпало указанное количество осадков.
R24 - Количество осадков - Количество выпавших осадков за 24 часа, мм.
S - Снежный покров - Высота снежного покрова, см. При наведении курсора мыши на число - состояние снежного покрова и степень покрытия местности в баллах.